FW8987 Weather Reports


time (UTC)temp
C
wind
direction
speed
KPH
gust
KPH
rain 1hr
cm
rain 24hr
cm
rain mn
cm
humidity
%
barometer
mb
20260906150027 18 231 4.8 9.7 0.00 0.00 0.00 54 1014.6
20260906145023 20 227 4.8 16.1 0.00 0.00 0.00 49 1014.5
20260906144019 20 239 4.8 11.3 0.00 0.00 0.00 50 1014.6
20260906143033 19 252 4.8 11.3 0.00 0.00 0.00 50 1014.7
20260906142028 18 231 4.8 9.7 0.00 0.00 0.00 52 1014.7
20260906141024 18 259 4.8 9.7 0.00 0.00 0.00 52 1014.7
20260906140019 19 242 4.8 14.5 0.00 0.00 0.00 49 1014.7
20260906135055 19 264 6.4 16.1 0.00 0.00 0.00 49 1014.6
20260906134030 18 257 6.4 12.9 0.00 0.00 0.00 51 1014.7
20260906133026 18 258 6.4 11.3 0.00 0.00 0.00 53 1014.6
20260906132040 17 252 4.8 11.3 0.00 0.00 0.00 53 1014.6
20260906131016 17 262 8.0 17.7 0.00 0.00 0.00 52 1014.7
20260906130031 18 253 6.4 16.1 0.00 0.00 0.00 51 1014.5
20260906125026 19 258 8.0 16.1 0.00 0.00 0.00 51 1014.5
20260906124042 18 257 4.8 12.9 0.00 0.00 0.00 53 1014.4
20260906123017 18 255 4.8 12.9 0.00 0.00 0.00 54 1014.4
20260906122032 17 226 3.2 6.4 0.00 0.00 0.00 57 1014.4
20260906121108 17 228 3.2 9.7 0.00 0.00 0.00 59 1014.3
20260906120023 17 261 1.6 6.4 0.00 0.00 0.00 59 1014.3
20260906115018 17 241 3.2 6.4 0.00 0.00 0.00 59 1014.4
20260906114034 17 240 3.2 14.5 0.00 0.00 0.00 59 1014.1
20260906113029 17 189 1.6 6.4 0.00 0.00 0.00 60 1014.0
20260906112025 17 223 3.2 6.4 0.00 0.00 0.00 59 1014.0
20260906111040 17 229 3.2 11.3 0.00 0.00 0.00 59 1013.9
20260906110015 17 262 6.4 14.5 0.00 0.00 0.00 59 1013.9
20260906105031 17 261 4.8 16.1 0.00 0.00 0.00 59 1013.7
20260906104027 18 230 3.2 9.7 0.00 0.00 0.00 61 1013.8
20260906103022 17 169 3.2 9.7 0.00 0.00 0.00 62 1013.7
20260906102016 17 247 3.2 11.3 0.00 0.00 0.00 62 1013.6
20260906101052 18 213 4.8 11.3 0.00 0.00 0.00 61 1013.5
20260906100028 18 215 3.2 6.4 0.00 0.00 0.00 61 1013.5
20260906095023 17 197 3.2 6.4 0.00 0.00 0.00 63 1013.5
20260906094038 17 243 6.4 16.1 0.00 0.00 0.00 65 1013.4
20260906093034 17 238 4.8 11.3 0.00 0.00 0.00 65 1013.4
20260906092029 17 257 6.4 11.3 0.00 0.00 0.00 66 1013.4
20260906091024 17 232 3.2 9.7 0.00 0.00 0.00 67 1013.4
20260906090019 16 252 6.4 12.9 0.00 0.00 0.00 68 1013.4
20260906085034 16 226 3.2 9.7 0.00 0.00 0.00 69 1013.3
20260906084029 16 229 4.8 11.3 0.00 0.00 0.00 70 1013.2
20260906083024 15 239 4.8 11.3 0.00 0.00 0.00 72 1013.0
20260906082019 16 243 6.4 11.3 0.00 0.00 0.00 72 1013.0
20260906081036 16 242 4.8 11.3 0.00 0.00 0.00 72 1012.7
20260906080031 15 254 4.8 11.3 0.00 0.00 0.00 74 1012.8
20260906075026 15 238 4.8 9.7 0.00 0.00 0.00 76 1012.6
20260906074021 15 235 6.4 14.5 0.00 0.00 0.00 78 1012.6
20260906073015 14 254 6.4 9.7 0.00 0.00 0.00 80 1012.6
20260906072032 13 249 6.4 9.7 0.00 0.00 0.00 81 1012.4
20260906071026 13 234 4.8 9.7 0.00 0.00 0.00 83 1012.5
20260906070022 13 224 3.2 9.7 0.00 0.00 0.00 84 1012.4
20260906065016 13 259 4.8 11.3 0.00 0.00 0.00 84 1012.2
20260906064032 12 236 3.2 6.4 0.00 0.00 0.00 86 1012.0
20260906063027 12 244 4.8 9.7 0.00 0.00 0.00 87 1011.9
20260906062022 11 240 3.2 11.3 0.00 0.00 0.00 88 1011.7
20260906061016 11 255 3.2 6.4 0.00 0.00 0.00 89 1011.7
20260906060052 11 247 3.2 9.7 0.00 0.00 0.00 91 1011.8
20260906055028 10 252 4.8 9.7 0.00 0.00 0.00 91 1011.8
20260906054023 10 226 3.2 6.4 0.00 0.00 0.00 92 1011.5
20260906053018 10 216 3.2 6.4 0.00 0.00 0.00 93 1011.5
20260906052034 10 230 3.2 6.4 0.00 0.00 0.00 94 1011.3
20260906051028 9 239 3.2 9.7 0.00 0.00 0.00 94 1011.2
20260906050024 9 220 3.2 6.4 0.00 0.00 0.00 95 1011.2
20260906045019 8 251 4.8 6.4 0.00 0.00 0.00 96 1011.2
20260906044035 8 227 3.2 6.4 0.00 0.00 0.00 97 1011.0
20260906043029 8 216 1.6 3.2 0.00 0.00 0.00 96 1010.8
20260906042025 8 245 3.2 4.8 0.00 0.00 0.00 96 1010.6
20260906041020 8 245 4.8 6.4 0.00 0.00 0.00 96 1010.6
20260906040056 8 234 3.2 4.8 0.00 0.00 0.00 96 1010.5
20260906035051 8 245 3.2 6.4 0.00 0.00 0.00 97 1010.5
20260906034026 8 229 3.2 11.3 0.00 0.00 0.00 97 1010.2
20260906033041 8 245 1.6 4.8 0.00 0.00 0.00 97 1010.1
20260906032015 8 227 4.8 6.4 0.00 0.00 0.00 97 1010.2
20260906031051 8 240 1.6 6.4 0.00 0.00 0.00 97 1010.0
20260906030027 8 219 1.6 4.8 0.00 0.00 0.00 97 1009.8
20260906025022 8 236 3.2 6.4 0.00 0.00 0.00 98 1009.7
20260906024018 8 246 4.8 9.7 0.00 0.00 0.00 99 1009.6
20260906023034 8 232 3.2 6.4 0.00 0.00 0.00 99 1009.4
20260906022028 7 237 1.6 6.4 0.00 0.00 0.00 99 1009.4
20260906021023 5 0.0 0.0 0.00 0.00 0.00 99 1009.3
20260906020019 5 0.0 0.0 0.00 0.00 0.00 99 1009.1
20260906015033 7 192 0.0 1.6 0.00 0.00 0.00 99 1009.1
20260906014048 7 204 0.0 1.6 0.00 0.00 0.00 99 1009.1
20260906013023 7 211 0.0 1.6 0.00 0.00 0.00 99 1009.0
20260906012038 6 207 0.0 3.2 0.00 0.00 0.00 99 1008.9
20260906011034 6 0.0 0.0 0.00 0.00 0.00 99 1008.7
20260906010028 6 200 0.0 1.6 0.00 0.00 0.00 99 1008.6
20260906005044 5 0.0 0.0 0.00 0.00 0.00 99 1008.6
20260906004020 5 0.0 0.0 0.00 0.00 0.00 99 1008.5
20260906003035 5 0.0 0.0 0.00 0.00 0.00 99 1008.4
20260906002029 5 0.0 0.0 0.00 0.00 0.00 99 1008.4
20260906001024 6 0.0 0.0 0.00 0.00 0.00 99 1008.4
20260906000040 6 0.0 0.0 0.00 0.00 0.00 99 1008.2
20260905235016 6 0.0 0.0 0.00 0.00 0.00 99 1008.2
20260905234031 6 0.0 0.0 0.00 0.00 0.00 99 1008.1
20260905233046 6 0.0 0.0 0.00 0.00 0.00 99 1008.0
20260905232041 6 0.0 0.0 0.00 0.00 0.00 99 1008.0
20260905231016 6 0.0 0.0 0.00 0.00 0.00 99 1007.8
20260905230031 6 0.0 0.0 0.00 0.00 0.00 99 1008.0
20260905225026 7 0.0 0.0 0.00 0.00 0.00 99 1007.7
20260905224022 7 0.0 0.0 0.00 0.00 0.00 99 1007.7
20260905223019 8 0.0 0.0 0.00 0.00 0.00 99 1007.6
20260905222033 8 0.0 0.0 0.00 0.00 0.00 99 1007.4
20260905221029 8 0.0 0.0 0.00 0.00 0.00 99 1007.4
20260905220024 8 0.0 0.0 0.00 0.00 0.00 99 1007.2
20260905215018 8 0.0 0.0 0.00 0.00 0.00 99 1007.1
20260905214034 8 0.0 0.0 0.00 0.00 0.00 99 1007.0
20260905213150 8 0.0 0.0 0.00 0.00 0.00 99 1007.0
20260905212024 8 0.0 0.0 0.00 0.00 0.00 99 1006.9
20260905211019 8 0.0 0.0 0.00 0.00 0.00 99 1006.7
20260905210036 8 0.0 0.0 0.00 0.00 0.00 99 1006.5
20260905205031 8 0.0 0.0 0.00 0.00 0.00 99 1006.4
20260905204126 8 0.0 0.0 0.00 0.00 0.00 98 1006.3
20260905203021 8 0.0 0.0 0.00 0.00 0.00 98 1006.2
20260905202016 8 0.0 0.0 0.00 0.00 0.00 98 1006.0
20260905201032 9 0.0 0.0 0.00 0.00 0.00 98 1006.0
20260905200028 9 0.0 0.0 0.00 0.00 0.00 98 1005.9
20260905195044 9 0.0 0.0 0.00 0.00 0.00 97 1005.8
20260905194019 9 0.0 0.0 0.00 0.00 0.00 97 1005.7
20260905193054 10 0.0 0.0 0.00 0.00 0.00 97 1005.7
20260905192030 9 195 0.0 1.6 0.00 0.00 0.00 97 1005.5
20260905191025 9 0.0 0.0 0.00 0.00 0.00 97 1005.4
20260905190041 9 0.0 0.0 0.00 0.00 0.00 96 1005.3
20260905185016 10 0.0 0.0 0.00 0.00 0.00 96 1005.2
20260905184031 10 0.0 0.0 0.00 0.00 0.00 96 1005.2
20260905183026 10 0.0 0.0 0.00 0.00 0.00 95 1004.9
20260905182021 10 0.0 0.0 0.00 0.00 0.00 95 1004.9
20260905181037 11 0.0 0.0 0.00 0.00 0.00 94 1004.8
20260905180032 11 0.0 0.0 0.00 0.00 0.00 93 1004.7
20260905175048 11 0.0 0.0 0.00 0.00 0.00 91 1004.4
20260905174043 12 0.0 0.0 0.00 0.00 0.00 89 1004.4
20260905173018 12 0.0 0.0 0.00 0.00 0.00 85 1004.2
20260905172034 13 0.0 0.0 0.00 0.00 0.00 83 1004.1
20260905171029 13 172 0.0 1.6 0.00 0.00 0.00 81 1004.0
20260905170024 13 165 0.0 3.2 0.00 0.00 0.00 81 1003.9
20260905165019 13 171 0.0 1.6 0.00 0.00 0.00 84 1003.8
20260905164034 13 174 0.0 1.6 0.00 0.00 0.00 84 1003.6
20260905163030 14 146 1.6 3.2 0.00 0.00 0.00 82 1003.5
20260905162026 14 154 1.6 4.8 0.00 0.00 0.00 80 1003.4
20260905161021 14 118 1.6 3.2 0.00 0.00 0.00 79 1003.2
20260905160016 14 95 3.2 6.4 0.00 0.00 0.00 78 1003.0
20260905155032 15 111 1.6 4.8 0.00 0.00 0.00 77 1003.0
20260905154027 15 145 1.6 3.2 0.00 0.00 0.00 78 1002.9
20260905153023 15 154 1.6 3.2 0.00 0.00 0.00 78 1002.8
20260905152018 15 140 1.6 3.2 0.00 0.00 0.00 77 1002.6
20260905151033 15 161 0.0 3.2 0.00 0.00 0.00 83 1002.5